Time,TemperatureF,DewpointF,PressureIn,WindDirection,WindDirectionDegrees,WindSpeedMPH,WindSpeedGustMPH,Humidity,HourlyPrecipIn,Conditions,Clouds,dailyrainin,SolarRadiationWatts/m^2,SoftwareType,DateUTC
2013-02-12 00:00:00,46.2,30.0,30.08,NNW,343,2.0,7.0,53,0.00,,,0.00,0,HR-IXPWINDi_r2_v1.2.,2013-02-12 05:00:00,
2013-02-12 00:05:00,46.7,28.0,30.08,NW,309,0.0,5.0,48,0.00,,,0.00,0,HR-IXPWINDi_r2_v1.2.,2013-02-12 05:05:00,
2013-02-12 00:10:00,46.9,28.7,30.08,NNW,329,0.0,5.0,49,0.00,,,0.00,0,HR-IXPWINDi_r2_v1.2.,2013-02-12 05:10:00,
2013-02-12 00:15:00,46.7,29.0,30.08,NNW,338,1.0,4.0,50,0.00,,,0.00,0,HR-IXPWINDi_r2_v1.2.,2013-02-12 05:15:00,
2013-02-12 00:20:00,46.0,30.3,30.08,NNW,340,0.0,4.0,54,0.00,,,0.00,0,HR-IXPWINDi_r2_v1.2.,2013-02-12 05:20:00,
2013-02-12 00:25:00,46.1,28.5,30.08,NNW,348,3.0,8.0,50,0.00,,,0.00,0,HR-IXPWINDi_r2_v1.2.,2013-02-12 05:25:00,
2013-02-12 00:30:00,46.1,29.4,30.08,North,349,0.0,8.0,52,0.00,,,0.00,0,HR-IXPWINDi_r2_v1.2.,2013-02-12 05:30:00,
2013-02-12 00:36:00,46.5,28.8,30.07,North,11,3.0,14.0,50,0.00,,,0.00,0,HR-IXPWINDi_r2_v1.2.,2013-02-12 05:36:00,
2013-02-12 00:41:00,46.0,30.3,30.08,North,355,3.0,14.0,54,0.00,,,0.00,0,HR-IXPWINDi_r2_v1.2.,2013-02-12 05:41:00,
2013-02-12 00:46:00,46.1,29.0,30.08,North,350,0.0,8.0,51,0.00,,,0.00,0,HR-IXPWINDi_r2_v1.2.,2013-02-12 05:46:00,
2013-02-12 00:51:00,46.6,29.4,30.08,North,360,15.0,15.0,51,0.00,,,0.00,0,HR-IXPWINDi_r2_v1.2.,2013-02-12 05:51:00,
2013-02-12 00:56:00,46.8,29.6,30.08,NNW,346,0.0,15.0,51,0.00,,,0.00,0,HR-IXPWINDi_r2_v1.2.,2013-02-12 05:56:00,
2013-02-12 01:01:00,46.2,30.4,30.08,ESE,108,0.0,15.0,54,0.00,,,0.00,0,HR-IXPWINDi_r2_v1.2.,2013-02-12 06:01:00,
2013-02-12 01:07:00,46.1,29.4,30.08,North,355,0.0,6.0,52,0.00,,,0.00,0,HR-IXPWINDi_r2_v1.2.,2013-02-12 06:07:00,
2013-02-12 01:12:00,45.9,29.7,30.08,North,9,0.0,6.0,53,0.00,,,0.00,0,HR-IXPWINDi_r2_v1.2.,2013-02-12 06:12:00,
2013-02-12 01:17:00,45.4,30.6,30.08,NNW,330,7.0,8.0,56,0.00,,,0.00,0,HR-IXPWINDi_r2_v1.2.,2013-02-12 06:17:00,
2013-02-12 01:22:00,45.1,30.3,30.08,NE,54,2.0,9.0,56,0.00,,,0.00,0,HR-IXPWINDi_r2_v1.2.,2013-02-12 06:22:00,
2013-02-12 01:28:00,45.0,29.8,30.08,North,5,5.0,9.0,55,0.00,,,0.00,0,HR-IXPWINDi_r2_v1.2.,2013-02-12 06:28:00,
2013-02-12 01:33:00,45.0,30.2,30.08,NNW,346,6.0,8.0,56,0.00,,,0.00,0,HR-IXPWINDi_r2_v1.2.,2013-02-12 06:33:00,
2013-02-12 01:38:00,45.2,30.0,30.08,NNW,340,5.0,10.0,55,0.00,,,0.00,0,HR-IXPWINDi_r2_v1.2.,2013-02-12 06:38:00,
2013-02-12 01:43:00,45.1,29.9,30.08,North,9,0.0,10.0,55,0.00,,,0.00,0,HR-IXPWINDi_r2_v1.2.,2013-02-12 06:43:00,
2013-02-12 01:49:00,44.7,29.9,30.09,West,277,2.0,7.0,56,0.00,,,0.00,0,HR-IXPWINDi_r2_v1.2.,2013-02-12 06:49:00,
2013-02-12 01:54:00,44.5,28.9,30.10,North,355,9.0,10.0,54,0.00,,,0.00,0,HR-IXPWINDi_r2_v1.2.,2013-02-12 06:54:00,
2013-02-12 01:59:00,44.7,28.6,30.10,NNW,331,6.0,12.0,53,0.00,,,0.00,0,HR-IXPWINDi_r2_v1.2.,2013-02-12 06:59:00,
2013-02-12 02:04:00,44.3,29.1,30.09,NNW,346,2.0,12.0,55,0.00,,,0.00,0,HR-IXPWINDi_r2_v1.2.,2013-02-12 07:04:00,
2013-02-12 02:09:00,43.6,28.0,30.09,NW,306,3.0,9.0,54,0.00,,,0.00,0,HR-IXPWINDi_r2_v1.2.,2013-02-12 07:09:00,
2013-02-12 02:15:00,43.5,27.9,30.09,North,355,4.0,8.0,54,0.00,,,0.00,0,HR-IXPWINDi_r2_v1.2.,2013-02-12 07:15:00,
2013-02-12 02:21:00,43.0,27.0,30.10,NW,312,0.0,8.0,53,0.00,,,0.00,0,HR-IXPWINDi_r2_v1.2.,2013-02-12 07:21:00,
2013-02-12 02:27:00,42.5,27.5,30.11,NNW,344,4.0,7.0,55,0.00,,,0.00,0,HR-IXPWINDi_r2_v1.2.,2013-02-12 07:27:00,
2013-02-12 02:33:00,42.6,27.1,30.12,NW,313,4.0,7.0,54,0.00,,,0.00,0,HR-IXPWINDi_r2_v1.2.,2013-02-12 07:33:00,
2013-02-12 02:38:00,41.8,28.5,30.11,NW,313,1.0,4.0,59,0.00,,,0.00,0,HR-IXPWINDi_r2_v1.2.,2013-02-12 07:38:00,
2013-02-12 02:43:00,41.7,28.0,30.09,NNW,339,2.0,5.0,58,0.00,,,0.00,0,HR-IXPWINDi_r2_v1.2.,2013-02-12 07:43:00,
2013-02-12 02:48:00,41.3,27.6,30.09,NNW,327,0.0,6.0,58,0.00,,,0.00,0,HR-IXPWINDi_r2_v1.2.,2013-02-12 07:48:00,
2013-02-12 02:53:00,41.4,27.7,30.09,NNW,329,0.0,6.0,58,0.00,,,0.00,0,HR-IXPWINDi_r2_v1.2.,2013-02-12 07:53:00,
2013-02-12 02:59:00,41.6,27.5,30.09,NW,319,3.0,7.0,57,0.00,,,0.00,0,HR-IXPWINDi_r2_v1.2.,2013-02-12 07:59:00,
2013-02-12 03:05:00,41.8,27.2,30.10,NW,311,0.0,7.0,56,0.00,,,0.00,0,HR-IXPWINDi_r2_v1.2.,2013-02-12 08:05:00,
2013-02-12 03:10:00,41.4,27.7,30.09,NNW,341,0.0,7.0,58,0.00,,,0.00,0,HR-IXPWINDi_r2_v1.2.,2013-02-12 08:10:00,
2013-02-12 03:16:00,41.0,26.9,30.10,NNW,329,0.0,4.0,57,0.00,,,0.00,0,HR-IXPWINDi_r2_v1.2.,2013-02-12 08:16:00,
2013-02-12 03:21:00,40.4,28.0,30.10,NNW,329,2.0,4.0,61,0.00,,,0.00,0,HR-IXPWINDi_r2_v1.2.,2013-02-12 08:21:00,
2013-02-12 03:26:00,39.4,28.6,30.10,NNW,336,0.0,4.0,65,0.00,,,0.00,0,HR-IXPWINDi_r2_v1.2.,2013-02-12 08:26:00,
2013-02-12 03:32:00,38.5,28.5,30.10,NNW,336,2.0,4.0,67,0.00,,,0.00,0,HR-IXPWINDi_r2_v1.2.,2013-02-12 08:32:00,
2013-02-12 03:38:00,38.9,28.1,30.10,NNW,336,0.0,4.0,65,0.00,,,0.00,0,HR-IXPWINDi_r2_v1.2.,2013-02-12 08:38:00,
2013-02-12 03:44:00,38.4,28.0,30.10,NNW,336,0.0,2.0,66,0.00,,,0.00,0,HR-IXPWINDi_r2_v1.2.,2013-02-12 08:44:00,
2013-02-12 03:51:00,38.3,27.9,30.10,NNW,339,4.0,4.0,66,0.00,,,0.00,0,HR-IXPWINDi_r2_v1.2.,2013-02-12 08:51:00,
2013-02-12 03:56:00,39.2,28.4,30.10,North,11,2.0,5.0,65,0.00,,,0.00,0,HR-IXPWINDi_r2_v1.2.,2013-02-12 08:56:00,
2013-02-12 04:02:00,39.8,27.8,30.09,NE,40,0.0,5.0,62,0.00,,,0.00,0,HR-IXPWINDi_r2_v1.2.,2013-02-12 09:02:00,
2013-02-12 04:07:00,39.0,28.6,30.09,North,5,0.0,5.0,66,0.00,,,0.00,0,HR-IXPWINDi_r2_v1.2.,2013-02-12 09:07:00,
2013-02-12 04:13:00,38.9,28.9,30.10,North,5,0.0,3.0,67,0.00,,,0.00,0,HR-IXPWINDi_r2_v1.2.,2013-02-12 09:13:00,
2013-02-12 04:18:00,38.7,29.0,30.11,North,5,0.0,3.0,68,0.00,,,0.00,0,HR-IXPWINDi_r2_v1.2.,2013-02-12 09:18:00,
2013-02-12 04:23:00,38.8,28.0,30.11,ESE,112,0.0,4.0,65,0.00,,,0.00,0,HR-IXPWINDi_r2_v1.2.,2013-02-12 09:23:00,
2013-02-12 04:30:00,39.5,27.9,30.11,ESE,120,0.0,4.0,63,0.00,,,0.00,0,HR-IXPWINDi_r2_v1.2.,2013-02-12 09:30:00,
2013-02-12 04:36:00,39.4,27.8,30.10,ESE,121,0.0,4.0,63,0.00,,,0.00,0,HR-IXPWINDi_r2_v1.2.,2013-02-12 09:36:00,
2013-02-12 04:41:00,39.3,27.7,30.12,ESE,121,0.0,4.0,63,0.00,,,0.00,0,HR-IXPWINDi_r2_v1.2.,2013-02-12 09:41:00,
2013-02-12 04:47:00,39.0,28.2,30.11,ESE,121,0.0,4.0,65,0.00,,,0.00,0,HR-IXPWINDi_r2_v1.2.,2013-02-12 09:47:00,
2013-02-12 04:52:00,39.3,27.7,30.10,South,171,0.0,6.0,63,0.00,,,0.00,0,HR-IXPWINDi_r2_v1.2.,2013-02-12 09:52:00,
2013-02-12 04:58:00,39.1,28.7,30.11,SSW,192,0.0,6.0,66,0.00,,,0.00,0,HR-IXPWINDi_r2_v1.2.,2013-02-12 09:58:00,
2013-02-12 05:03:00,38.6,28.2,30.10,SSW,192,0.0,6.0,66,0.00,,,0.00,0,HR-IXPWINDi_r2_v1.2.,2013-02-12 10:03:00,
2013-02-12 05:08:00,38.7,27.9,30.10,NNW,342,0.0,3.0,65,0.00,,,0.00,0,HR-IXPWINDi_r2_v1.2.,2013-02-12 10:08:00,
2013-02-12 05:13:00,38.3,29.0,30.10,NW,317,2.0,3.0,69,0.00,,,0.00,0,HR-IXPWINDi_r2_v1.2.,2013-02-12 10:13:00,
2013-02-12 05:20:00,37.4,29.2,30.10,NW,317,3.0,3.0,72,0.00,,,0.00,0,HR-IXPWINDi_r2_v1.2.,2013-02-12 10:20:00,
2013-02-12 05:25:00,37.0,29.1,30.10,NW,317,2.0,3.0,73,0.00,,,0.00,0,HR-IXPWINDi_r2_v1.2.,2013-02-12 10:25:00,
2013-02-12 05:31:00,36.8,28.6,30.10,WSW,252,1.0,3.0,72,0.00,,,0.00,0,HR-IXPWINDi_r2_v1.2.,2013-02-12 10:31:00,
2013-02-12 05:36:00,37.0,28.1,30.11,SW,221,3.0,4.0,70,0.00,,,0.00,0,HR-IXPWINDi_r2_v1.2.,2013-02-12 10:36:00,
2013-02-12 05:41:00,37.0,28.1,30.10,WNW,293,3.0,4.0,70,0.00,,,0.00,0,HR-IXPWINDi_r2_v1.2.,2013-02-12 10:41:00,
2013-02-12 05:47:00,36.5,28.7,30.10,NNW,338,4.0,4.0,73,0.00,,,0.00,0,HR-IXPWINDi_r2_v1.2.,2013-02-12 10:47:00,
2013-02-12 05:52:00,36.2,28.4,30.11,NNW,338,1.0,4.0,73,0.00,,,0.00,0,HR-IXPWINDi_r2_v1.2.,2013-02-12 10:52:00,
2013-02-12 05:58:00,36.1,27.9,30.11,WNW,297,0.0,4.0,72,0.00,,,0.00,0,HR-IXPWINDi_r2_v1.2.,2013-02-12 10:58:00,
2013-02-12 06:04:00,36.0,28.8,30.11,WNW,297,0.0,3.0,75,0.00,,,0.00,0,HR-IXPWINDi_r2_v1.2.,2013-02-12 11:04:00,
2013-02-12 06:09:00,36.0,27.8,30.11,SSW,207,1.0,3.0,72,0.00,,,0.00,0,HR-IXPWINDi_r2_v1.2.,2013-02-12 11:09:00,
2013-02-12 06:15:00,35.9,28.4,30.11,SSW,207,0.0,3.0,74,0.00,,,0.00,0,HR-IXPWINDi_r2_v1.2.,2013-02-12 11:15:00,
2013-02-12 06:20:00,35.2,28.1,30.11,SW,236,0.0,3.0,75,0.00,,,0.00,0,HR-IXPWINDi_r2_v1.2.,2013-02-12 11:20:00,
2013-02-12 06:25:00,34.7,28.2,30.11,SW,236,0.0,3.0,77,0.00,,,0.00,0,HR-IXPWINDi_r2_v1.2.,2013-02-12 11:25:00,
2013-02-12 06:32:00,33.9,28.1,30.11,SW,236,0.0,2.0,79,0.00,,,0.00,0,HR-IXPWINDi_r2_v1.2.,2013-02-12 11:32:00,
2013-02-12 06:37:00,33.5,27.7,30.12,SW,236,2.0,2.0,79,0.00,,,0.00,0,HR-IXPWINDi_r2_v1.2.,2013-02-12 11:37:00,
2013-02-12 06:46:00,33.6,27.8,30.12,NNW,335,0.0,3.0,79,0.00,,,0.00,0,HR-IXPWINDi_r2_v1.2.,2013-02-12 11:46:00,
2013-02-12 06:51:00,33.4,27.6,30.12,NNW,335,0.0,3.0,79,0.00,,,0.00,0,HR-IXPWINDi_r2_v1.2.,2013-02-12 11:51:00,
2013-02-12 06:56:00,33.6,27.1,30.13,NNW,338,0.0,3.0,77,0.00,,,0.00,0,HR-IXPWINDi_r2_v1.2.,2013-02-12 11:56:00,
2013-02-12 07:01:00,33.4,27.9,30.12,SW,229,3.0,3.0,80,0.00,,,0.00,0,HR-IXPWINDi_r2_v1.2.,2013-02-12 12:01:00,
2013-02-12 07:06:00,33.1,27.9,30.11,SW,229,0.0,3.0,81,0.00,,,0.00,0,HR-IXPWINDi_r2_v1.2.,2013-02-12 12:06:00,
2013-02-12 07:12:00,33.0,27.8,30.12,North,350,4.0,5.0,81,0.00,,,0.00,0,HR-IXPWINDi_r2_v1.2.,2013-02-12 12:12:00,
2013-02-12 07:18:00,33.2,27.7,30.12,NNW,336,1.0,5.0,80,0.00,,,0.00,0,HR-IXPWINDi_r2_v1.2.,2013-02-12 12:18:00,
2013-02-12 07:24:00,33.7,27.6,30.14,South,181,0.0,5.0,78,0.00,,,0.00,5,HR-IXPWINDi_r2_v1.2.,2013-02-12 12:24:00,
2013-02-12 07:29:00,33.9,27.4,30.14,North,10,0.0,5.0,77,0.00,,,0.00,7,HR-IXPWINDi_r2_v1.2.,2013-02-12 12:29:00,
2013-02-12 07:34:00,33.4,27.6,30.14,North,10,0.0,4.0,79,0.00,,,0.00,9,HR-IXPWINDi_r2_v1.2.,2013-02-12 12:34:00,
2013-02-12 07:40:00,33.1,27.6,30.15,North,10,0.0,2.0,80,0.00,,,0.00,12,HR-IXPWINDi_r2_v1.2.,2013-02-12 12:40:00,
2013-02-12 07:45:00,32.4,27.5,30.14,North,10,0.0,2.0,82,0.00,,,0.00,12,HR-IXPWINDi_r2_v1.2.,2013-02-12 12:45:00,
2013-02-12 07:51:00,31.9,27.3,30.14,North,10,0.0,2.0,83,0.00,,,0.00,14,HR-IXPWINDi_r2_v1.2.,2013-02-12 12:51:00,
2013-02-12 07:56:00,31.9,27.6,30.13,North,10,3.0,3.0,84,0.00,,,0.00,16,HR-IXPWINDi_r2_v1.2.,2013-02-12 12:56:00,
2013-02-12 08:03:00,32.2,27.6,30.13,NNW,348,0.0,3.0,83,0.00,,,0.00,69,HR-IXPWINDi_r2_v1.2.,2013-02-12 13:03:00,
2013-02-12 08:09:00,33.1,28.5,30.14,SW,221,1.0,3.0,83,0.00,,,0.00,84,HR-IXPWINDi_r2_v1.2.,2013-02-12 13:09:00,
2013-02-12 08:14:00,33.9,28.7,30.14,SW,221,0.0,3.0,81,0.00,,,0.00,102,HR-IXPWINDi_r2_v1.2.,2013-02-12 13:14:00,
2013-02-12 08:21:00,33.4,28.5,30.14,SW,221,0.0,3.0,82,0.00,,,0.00,23,HR-IXPWINDi_r2_v1.2.,2013-02-12 13:21:00,
2013-02-12 08:27:00,33.0,28.1,30.14,SW,221,0.0,3.0,82,0.00,,,0.00,37,HR-IXPWINDi_r2_v1.2.,2013-02-12 13:27:00,
2013-02-12 08:33:00,32.5,28.2,30.15,SW,221,0.0,3.0,84,0.00,,,0.00,44,HR-IXPWINDi_r2_v1.2.,2013-02-12 13:33:00,
2013-02-12 08:38:00,33.7,29.1,30.15,SW,221,0.0,2.0,83,0.00,,,0.00,137,HR-IXPWINDi_r2_v1.2.,2013-02-12 13:38:00,
2013-02-12 08:43:00,36.4,30.2,30.17,SW,221,0.0,2.0,78,0.00,,,0.00,218,HR-IXPWINDi_r2_v1.2.,2013-02-12 13:43:00,
2013-02-12 08:49:00,38.7,30.1,30.17,SW,220,3.0,3.0,71,0.00,,,0.00,250,HR-IXPWINDi_r2_v1.2.,2013-02-12 13:49:00,
2013-02-12 08:56:00,40.7,29.1,30.16,NNW,346,0.0,3.0,63,0.00,,,0.00,262,HR-IXPWINDi_r2_v1.2.,2013-02-12 13:56:00,
2013-02-12 09:01:00,41.3,28.8,30.17,NW,309,0.0,3.0,61,0.00,,,0.00,54,HR-IXPWINDi_r2_v1.2.,2013-02-12 14:01:00,
2013-02-12 09:07:00,40.4,27.6,30.17,NNW,348,3.0,4.0,60,0.00,,,0.00,81,HR-IXPWINDi_r2_v1.2.,2013-02-12 14:07:00,
2013-02-12 09:14:00,40.2,27.8,30.16,NNW,343,0.0,4.0,61,0.00,,,0.00,95,HR-IXPWINDi_r2_v1.2.,2013-02-12 14:14:00,
2013-02-12 09:21:00,40.2,28.2,30.16,WSW,257,0.0,4.0,62,0.00,,,0.00,204,HR-IXPWINDi_r2_v1.2.,2013-02-12 14:21:00,
2013-02-12 09:26:00,40.5,27.7,30.17,WSW,250,1.0,4.0,60,0.00,,,0.00,156,HR-IXPWINDi_r2_v1.2.,2013-02-12 14:26:00,
2013-02-12 09:34:00,41.7,28.8,30.16,WSW,240,2.0,5.0,60,0.00,,,0.00,378,HR-IXPWINDi_r2_v1.2.,2013-02-12 14:34:00,
2013-02-12 09:40:00,42.4,28.6,30.16,SSW,205,4.0,5.0,58,0.00,,,0.00,394,HR-IXPWINDi_r2_v1.2.,2013-02-12 14:40:00,
2013-02-12 09:45:00,43.0,28.8,30.16,SW,216,1.0,7.0,57,0.00,,,0.00,408,HR-IXPWINDi_r2_v1.2.,2013-02-12 14:45:00,
2013-02-12 09:50:00,42.9,27.8,30.15,SW,217,1.0,7.0,55,0.00,,,0.00,422,HR-IXPWINDi_r2_v1.2.,2013-02-12 14:50:00,
2013-02-12 09:56:00,43.9,28.3,30.15,SW,227,2.0,7.0,54,0.00,,,0.00,436,HR-IXPWINDi_r2_v1.2.,2013-02-12 14:56:00,
2013-02-12 10:03:00,44.2,28.1,30.15,NW,325,1.0,7.0,53,0.00,,,0.00,450,HR-IXPWINDi_r2_v1.2.,2013-02-12 15:03:00,
2013-02-12 10:09:00,44.6,26.1,30.14,North,9,0.0,5.0,48,0.00,,,0.00,468,HR-IXPWINDi_r2_v1.2.,2013-02-12 15:09:00,
2013-02-12 10:15:00,44.7,26.7,30.14,NNW,328,5.0,5.0,49,0.00,,,0.00,482,HR-IXPWINDi_r2_v1.2.,2013-02-12 15:15:00,
2013-02-12 10:20:00,44.6,25.6,30.14,NNW,342,7.0,12.0,47,0.00,,,0.00,494,HR-IXPWINDi_r2_v1.2.,2013-02-12 15:20:00,
2013-02-12 10:25:00,45.1,26.1,30.13,North,360,1.0,12.0,47,0.00,,,0.00,504,HR-IXPWINDi_r2_v1.2.,2013-02-12 15:25:00,
2013-02-12 10:35:00,46.5,26.3,30.12,North,355,1.0,12.0,45,0.00,,,0.00,524,HR-IXPWINDi_r2_v1.2.,2013-02-12 15:35:00,
2013-02-12 10:41:00,46.8,27.1,30.12,NNW,335,4.0,7.0,46,0.00,,,0.00,538,HR-IXPWINDi_r2_v1.2.,2013-02-12 15:41:00,
2013-02-12 10:46:00,46.7,25.9,30.11,North,355,3.0,7.0,44,0.00,,,0.00,548,HR-IXPWINDi_r2_v1.2.,2013-02-12 15:46:00,
2013-02-12 10:54:00,47.5,26.1,30.10,SE,126,2.0,7.0,43,0.00,,,0.00,564,HR-IXPWINDi_r2_v1.2.,2013-02-12 15:54:00,
2013-02-12 11:00:00,47.7,25.1,30.11,North,355,2.0,7.0,41,0.00,,,0.00,577,HR-IXPWINDi_r2_v1.2.,2013-02-12 16:00:00,
2013-02-12 11:07:00,48.5,25.9,30.11,North,355,1.0,7.0,41,0.00,,,0.00,591,HR-IXPWINDi_r2_v1.2.,2013-02-12 16:07:00,
2013-02-12 11:13:00,49.5,27.3,30.11,WNW,303,0.0,8.0,42,0.00,,,0.00,598,HR-IXPWINDi_r2_v1.2.,2013-02-12 16:13:00,
2013-02-12 11:18:00,49.6,28.0,30.10,North,5,8.0,8.0,43,0.00,,,0.00,605,HR-IXPWINDi_r2_v1.2.,2013-02-12 16:18:00,
2013-02-12 11:26:00,48.7,26.6,30.08,ESE,106,2.0,8.0,42,0.00,,,0.00,615,HR-IXPWINDi_r2_v1.2.,2013-02-12 16:26:00,
2013-02-12 11:31:00,49.5,25.6,30.08,WNW,297,1.0,8.0,39,0.00,,,0.00,622,HR-IXPWINDi_r2_v1.2.,2013-02-12 16:31:00,
2013-02-12 11:40:00,51.2,25.1,30.07,North,355,2.0,7.0,36,0.00,,,0.00,633,HR-IXPWINDi_r2_v1.2.,2013-02-12 16:40:00,
2013-02-12 11:45:00,51.8,25.7,30.08,North,5,1.0,7.0,36,0.00,,,0.00,647,HR-IXPWINDi_r2_v1.2.,2013-02-12 16:45:00,
2013-02-12 11:54:00,51.1,27.0,30.09,South,185,4.0,7.0,39,0.00,,,0.00,659,HR-IXPWINDi_r2_v1.2.,2013-02-12 16:54:00,
2013-02-12 11:59:00,49.9,28.3,30.08,SSW,209,9.0,11.0,43,0.00,,,0.00,566,HR-IXPWINDi_r2_v1.2.,2013-02-12 16:59:00,
2013-02-12 12:06:00,49.0,26.9,30.07,SSW,196,4.0,11.0,42,0.00,,,0.00,547,HR-IXPWINDi_r2_v1.2.,2013-02-12 17:06:00,
2013-02-12 12:14:00,49.6,28.0,30.07,SSW,198,6.0,11.0,43,0.00,,,0.00,399,HR-IXPWINDi_r2_v1.2.,2013-02-12 17:14:00,
2013-02-12 12:21:00,49.9,28.3,30.08,SSW,211,4.0,11.0,43,0.00,,,0.00,411,HR-IXPWINDi_r2_v1.2.,2013-02-12 17:21:00,
2013-02-12 12:26:00,49.8,27.6,30.07,SSW,210,4.0,10.0,42,0.00,,,0.00,362,HR-IXPWINDi_r2_v1.2.,2013-02-12 17:26:00,
2013-02-12 12:32:00,50.3,28.6,30.08,South,187,6.0,9.0,43,0.00,,,0.00,346,HR-IXPWINDi_r2_v1.2.,2013-02-12 17:32:00,
2013-02-12 12:37:00,49.8,28.2,30.08,SSW,202,1.0,9.0,43,0.00,,,0.00,292,HR-IXPWINDi_r2_v1.2.,2013-02-12 17:37:00,
2013-02-12 12:42:00,50.1,30.1,30.08,South,184,1.0,9.0,46,0.00,,,0.00,294,HR-IXPWINDi_r2_v1.2.,2013-02-12 17:42:00,
2013-02-12 12:47:00,50.2,28.0,30.08,SSW,208,6.0,10.0,42,0.00,,,0.00,334,HR-IXPWINDi_r2_v1.2.,2013-02-12 17:47:00,
2013-02-12 12:53:00,49.5,27.3,30.07,SSW,197,4.0,10.0,42,0.00,,,0.00,257,HR-IXPWINDi_r2_v1.2.,2013-02-12 17:53:00,
2013-02-12 13:01:00,49.7,28.7,30.07,SW,219,2.0,10.0,44,0.00,,,0.00,262,HR-IXPWINDi_r2_v1.2.,2013-02-12 18:01:00,
2013-02-12 13:06:00,49.7,28.7,30.07,SSW,199,5.0,9.0,44,0.00,,,0.00,260,HR-IXPWINDi_r2_v1.2.,2013-02-12 18:06:00,
2013-02-12 13:13:00,49.8,28.2,30.07,SSW,207,3.0,8.0,43,0.00,,,0.00,251,HR-IXPWINDi_r2_v1.2.,2013-02-12 18:13:00,
2013-02-12 13:18:00,49.3,27.7,30.07,SSW,195,1.0,8.0,43,0.00,,,0.00,230,HR-IXPWINDi_r2_v1.2.,2013-02-12 18:18:00,
2013-02-12 13:23:00,49.4,27.8,30.07,SSW,200,4.0,8.0,43,0.00,,,0.00,209,HR-IXPWINDi_r2_v1.2.,2013-02-12 18:23:00,
2013-02-12 13:31:00,49.2,27.6,30.07,SSW,192,4.0,8.0,43,0.00,,,0.00,178,HR-IXPWINDi_r2_v1.2.,2013-02-12 18:31:00,
2013-02-12 13:36:00,49.0,26.9,30.06,SSW,206,1.0,8.0,42,0.00,,,0.00,156,HR-IXPWINDi_r2_v1.2.,2013-02-12 18:36:00,
2013-02-12 13:42:00,49.1,27.0,30.06,SSW,196,0.0,8.0,42,0.00,,,0.00,153,HR-IXPWINDi_r2_v1.2.,2013-02-12 18:42:00,
2013-02-12 13:48:00,49.4,27.3,30.06,SSW,196,1.0,7.0,42,0.00,,,0.00,156,HR-IXPWINDi_r2_v1.2.,2013-02-12 18:48:00,
2013-02-12 13:55:00,49.6,28.0,30.06,SSW,199,3.0,7.0,43,0.00,,,0.00,158,HR-IXPWINDi_r2_v1.2.,2013-02-12 18:55:00,
2013-02-12 14:00:00,49.6,26.8,30.05,SSW,200,0.0,5.0,41,0.00,,,0.00,137,HR-IXPWINDi_r2_v1.2.,2013-02-12 19:00:00,
2013-02-12 14:05:00,50.1,27.3,30.06,West,267,3.0,5.0,41,0.00,,,0.00,149,HR-IXPWINDi_r2_v1.2.,2013-02-12 19:05:00,
2013-02-12 14:10:00,50.2,26.8,30.07,SW,223,2.0,5.0,40,0.00,,,0.00,146,HR-IXPWINDi_r2_v1.2.,2013-02-12 19:10:00,
2013-02-12 14:15:00,50.0,27.2,30.06,SSE,165,4.0,5.0,41,0.00,,,0.00,132,HR-IXPWINDi_r2_v1.2.,2013-02-12 19:15:00,
2013-02-12 14:21:00,50.1,27.9,30.05,WSW,255,0.0,5.0,42,0.00,,,0.00,132,HR-IXPWINDi_r2_v1.2.,2013-02-12 19:21:00,
2013-02-12 14:26:00,50.5,28.8,30.05,WSW,255,0.0,5.0,43,0.00,,,0.00,125,HR-IXPWINDi_r2_v1.2.,2013-02-12 19:26:00,
2013-02-12 14:31:00,50.7,27.8,30.04,WSW,255,0.0,5.0,41,0.00,,,0.00,125,HR-IXPWINDi_r2_v1.2.,2013-02-12 19:31:00,
2013-02-12 14:37:00,50.6,26.5,30.04,WSW,255,0.0,5.0,39,0.00,,,0.00,121,HR-IXPWINDi_r2_v1.2.,2013-02-12 19:37:00,
2013-02-12 14:42:00,51.2,27.7,30.04,WSW,255,0.0,1.0,40,0.00,,,0.00,113,HR-IXPWINDi_r2_v1.2.,2013-02-12 19:42:00,
2013-02-12 14:47:00,50.6,28.9,30.03,WSW,240,2.0,2.0,43,0.00,,,0.00,105,HR-IXPWINDi_r2_v1.2.,2013-02-12 19:47:00,
2013-02-12 14:56:00,50.4,27.6,30.04,SW,233,0.0,2.0,41,0.00,,,0.00,79,HR-IXPWINDi_r2_v1.2.,2013-02-12 19:56:00,
2013-02-12 15:02:00,50.3,28.1,30.05,SW,233,0.0,2.0,42,0.00,,,0.00,72,HR-IXPWINDi_r2_v1.2.,2013-02-12 20:02:00,
2013-02-12 15:08:00,50.3,28.6,30.06,SW,233,0.0,2.0,43,0.00,,,0.00,62,HR-IXPWINDi_r2_v1.2.,2013-02-12 20:08:00,
2013-02-12 15:14:00,50.3,29.2,30.06,SW,233,0.0,2.0,44,0.00,,,0.00,56,HR-IXPWINDi_r2_v1.2.,2013-02-12 20:14:00,
2013-02-12 15:21:00,50.1,27.9,30.05,SW,233,0.0,2.0,42,0.00,,,0.00,63,HR-IXPWINDi_r2_v1.2.,2013-02-12 20:21:00,
2013-02-12 15:27:00,50.3,29.2,30.05,SW,233,0.0,1.0,44,0.00,,,0.00,60,HR-IXPWINDi_r2_v1.2.,2013-02-12 20:27:00,
2013-02-12 15:33:00,50.3,31.3,30.05,SW,233,0.0,1.0,48,0.00,,,0.00,51,HR-IXPWINDi_r2_v1.2.,2013-02-12 20:33:00,
2013-02-12 15:38:00,50.0,31.1,30.04,SW,233,0.0,0.0,48,0.00,,,0.00,47,HR-IXPWINDi_r2_v1.2.,2013-02-12 20:38:00,
2013-02-12 15:43:00,49.7,31.3,30.05,SW,233,0.0,0.0,49,0.00,,,0.00,51,HR-IXPWINDi_r2_v1.2.,2013-02-12 20:43:00,
2013-02-12 15:48:00,49.6,31.2,30.05,SW,233,0.0,1.0,49,0.00,,,0.00,39,HR-IXPWINDi_r2_v1.2.,2013-02-12 20:48:00,
2013-02-12 15:53:00,49.3,31.9,30.05,SW,233,0.0,1.0,51,0.00,,,0.00,40,HR-IXPWINDi_r2_v1.2.,2013-02-12 20:53:00,
2013-02-12 15:59:00,49.0,31.6,30.06,SW,233,0.0,1.0,51,0.00,,,0.00,37,HR-IXPWINDi_r2_v1.2.,2013-02-12 20:59:00,
2013-02-12 16:04:00,49.0,30.1,30.05,SW,233,0.0,1.0,48,0.00,,,0.00,33,HR-IXPWINDi_r2_v1.2.,2013-02-12 21:04:00,
2013-02-12 16:09:00,49.1,31.2,30.05,SW,233,0.0,1.0,50,0.00,,,0.00,28,HR-IXPWINDi_r2_v1.2.,2013-02-12 21:09:00,
2013-02-12 16:14:00,49.2,32.8,30.04,SW,233,0.0,1.0,53,0.00,,,0.00,26,HR-IXPWINDi_r2_v1.2.,2013-02-12 21:14:00,
2013-02-12 16:20:00,48.5,32.1,30.03,SW,233,0.0,2.0,53,0.00,,,0.00,18,HR-IXPWINDi_r2_v1.2.,2013-02-12 21:20:00,
2013-02-12 16:25:00,48.4,32.9,30.03,SW,233,0.0,2.0,55,0.00,,,0.00,19,HR-IXPWINDi_r2_v1.2.,2013-02-12 21:25:00,
2013-02-12 16:31:00,48.3,33.7,30.04,SW,233,0.0,1.0,57,0.00,,,0.00,19,HR-IXPWINDi_r2_v1.2.,2013-02-12 21:31:00,
2013-02-12 16:36:00,48.0,32.6,30.05,SW,233,0.0,2.0,55,0.00,,,0.00,18,HR-IXPWINDi_r2_v1.2.,2013-02-12 21:36:00,
2013-02-12 16:41:00,47.9,32.9,30.03,SW,233,1.0,2.0,56,0.00,,,0.00,23,HR-IXPWINDi_r2_v1.2.,2013-02-12 21:41:00,
2013-02-12 16:47:00,47.6,33.9,30.02,WSW,252,1.0,3.0,59,0.00,,,0.00,26,HR-IXPWINDi_r2_v1.2.,2013-02-12 21:47:00,
2013-02-12 16:52:00,47.5,34.3,30.02,WSW,252,0.0,3.0,60,0.00,,,0.00,21,HR-IXPWINDi_r2_v1.2.,2013-02-12 21:52:00,
2013-02-12 16:57:00,47.6,34.4,30.03,WSW,252,1.0,3.0,60,0.00,,,0.00,18,HR-IXPWINDi_r2_v1.2.,2013-02-12 21:57:00,
2013-02-12 17:02:00,47.7,32.3,30.04,WSW,252,0.0,3.0,55,0.00,,,0.00,12,HR-IXPWINDi_r2_v1.2.,2013-02-12 22:02:00,
2013-02-12 17:07:00,47.7,33.2,30.03,WSW,252,0.0,3.0,57,0.00,,,0.00,14,HR-IXPWINDi_r2_v1.2.,2013-02-12 22:07:00,
2013-02-12 17:13:00,47.4,35.4,30.02,SW,236,1.0,3.0,63,0.00,,,0.00,18,HR-IXPWINDi_r2_v1.2.,2013-02-12 22:13:00,
2013-02-12 17:18:00,47.0,34.6,30.01,SE,132,0.0,3.0,62,0.00,,,0.00,14,HR-IXPWINDi_r2_v1.2.,2013-02-12 22:18:00,
2013-02-12 17:24:00,47.3,32.4,30.00,ESE,109,2.0,4.0,56,0.00,,,0.00,14,HR-IXPWINDi_r2_v1.2.,2013-02-12 22:24:00,
2013-02-12 17:29:00,47.5,32.6,30.00,East,98,0.0,4.0,56,0.00,,,0.00,14,HR-IXPWINDi_r2_v1.2.,2013-02-12 22:29:00,
2013-02-12 17:34:00,47.6,30.8,30.02,East,98,0.0,4.0,52,0.00,,,0.00,7,HR-IXPWINDi_r2_v1.2.,2013-02-12 22:34:00,
2013-02-12 17:39:00,47.2,33.6,30.02,East,98,0.0,2.0,59,0.00,,,0.00,5,HR-IXPWINDi_r2_v1.2.,2013-02-12 22:39:00,
2013-02-12 17:44:00,46.6,34.6,30.02,East,99,0.0,2.0,63,0.00,,,0.00,0,HR-IXPWINDi_r2_v1.2.,2013-02-12 22:44:00,
2013-02-12 17:50:00,46.1,34.2,29.99,ESE,107,0.0,4.0,63,0.00,,,0.00,0,HR-IXPWINDi_r2_v1.2.,2013-02-12 22:50:00,
2013-02-12 17:55:00,46.4,34.1,29.98,ESE,107,0.0,4.0,62,0.00,,,0.00,0,HR-IXPWINDi_r2_v1.2.,2013-02-12 22:55:00,
2013-02-12 18:00:00,46.4,33.2,29.96,East,85,0.0,5.0,60,0.00,,,0.00,0,HR-IXPWINDi_r2_v1.2.,2013-02-12 23:00:00,
2013-02-12 18:06:00,46.3,34.4,29.96,East,85,0.0,5.0,63,0.00,,,0.00,0,HR-IXPWINDi_r2_v1.2.,2013-02-12 23:06:00,
2013-02-12 18:11:00,46.1,35.3,29.95,East,85,0.0,3.0,66,0.00,,,0.00,0,HR-IXPWINDi_r2_v1.2.,2013-02-12 23:11:00,
2013-02-12 18:16:00,45.5,34.4,29.96,East,85,0.0,2.0,65,0.00,,,0.00,0,HR-IXPWINDi_r2_v1.2.,2013-02-12 23:16:00,
2013-02-12 18:22:00,45.4,35.8,29.96,East,85,2.0,2.0,69,0.00,,,0.00,0,HR-IXPWINDi_r2_v1.2.,2013-02-12 23:22:00,
2013-02-12 18:27:00,45.4,36.2,29.95,East,85,0.0,3.0,70,0.00,,,0.00,0,HR-IXPWINDi_r2_v1.2.,2013-02-12 23:27:00,
2013-02-12 18:32:00,45.3,35.0,29.95,East,85,0.0,3.0,67,0.00,,,0.00,0,HR-IXPWINDi_r2_v1.2.,2013-02-12 23:32:00,
2013-02-12 18:38:00,45.4,35.0,29.96,East,85,0.0,1.0,67,0.00,,,0.00,0,HR-IXPWINDi_r2_v1.2.,2013-02-12 23:38:00,
2013-02-12 18:43:00,45.1,35.5,29.96,East,85,0.0,1.0,69,0.00,,,0.00,0,HR-IXPWINDi_r2_v1.2.,2013-02-12 23:43:00,
2013-02-12 18:48:00,44.9,35.3,29.97,East,85,0.0,2.0,69,0.00,,,0.00,0,HR-IXPWINDi_r2_v1.2.,2013-02-12 23:48:00,
2013-02-12 18:53:00,44.4,36.3,29.98,SSE,167,0.0,4.0,73,0.00,,,0.00,0,HR-IXPWINDi_r2_v1.2.,2013-02-12 23:53:00,
2013-02-12 18:58:00,44.3,36.5,29.98,SSE,167,0.0,4.0,74,0.00,,,0.00,0,HR-IXPWINDi_r2_v1.2.,2013-02-12 23:58:00,
2013-02-12 19:03:00,44.2,36.7,29.99,SSE,167,1.0,1.0,75,0.00,,,0.00,0,HR-IXPWINDi_r2_v1.2.,2013-02-13 00:03:00,
2013-02-12 19:08:00,43.9,37.1,30.00,SSE,167,0.0,2.0,77,0.00,,,0.00,0,HR-IXPWINDi_r2_v1.2.,2013-02-13 00:08:00,
2013-02-12 19:13:00,44.0,37.5,30.00,SSE,167,0.0,2.0,78,0.00,,,0.00,0,HR-IXPWINDi_r2_v1.2.,2013-02-13 00:13:00,
2013-02-12 19:19:00,43.9,38.1,29.99,SSE,167,0.0,0.0,80,0.00,,,0.01,0,HR-IXPWINDi_r2_v1.2.,2013-02-13 00:19:00,
2013-02-12 19:24:00,43.6,38.1,30.00,SSE,167,0.0,0.0,81,0.00,,,0.01,0,HR-IXPWINDi_r2_v1.2.,2013-02-13 00:24:00,
2013-02-12 19:30:00,42.6,37.8,30.00,SSE,167,1.0,1.0,83,0.00,,,0.01,0,HR-IXPWINDi_r2_v1.2.,2013-02-13 00:30:00,
2013-02-12 19:35:00,41.9,37.7,30.02,South,178,0.0,2.0,85,0.04,,,0.02,0,HR-IXPWINDi_r2_v1.2.,2013-02-13 00:35:00,
2013-02-12 19:41:00,41.8,38.2,30.02,South,178,0.0,2.0,87,0.04,,,0.02,0,HR-IXPWINDi_r2_v1.2.,2013-02-13 00:41:00,
2013-02-12 19:46:00,41.8,38.5,30.02,South,178,0.0,2.0,88,0.04,,,0.03,0,HR-IXPWINDi_r2_v1.2.,2013-02-13 00:46:00,
2013-02-12 19:51:00,41.6,38.6,30.03,South,178,0.0,2.0,89,0.04,,,0.03,0,HR-IXPWINDi_r2_v1.2.,2013-02-13 00:51:00,
2013-02-12 19:57:00,41.3,38.5,30.03,South,178,0.0,0.0,90,0.07,,,0.04,0,HR-IXPWINDi_r2_v1.2.,2013-02-13 00:57:00,
2013-02-12 20:02:00,41.2,38.7,30.04,South,178,0.0,0.0,91,0.07,,,0.04,0,HR-IXPWINDi_r2_v1.2.,2013-02-13 01:02:00,
2013-02-12 20:07:00,41.1,38.6,30.03,South,178,0.0,0.0,91,0.05,,,0.04,0,HR-IXPWINDi_r2_v1.2.,2013-02-13 01:07:00,
2013-02-12 20:13:00,41.0,38.5,30.02,SSE,147,0.0,2.0,91,0.05,,,0.05,0,HR-IXPWINDi_r2_v1.2.,2013-02-13 01:13:00,
2013-02-12 20:21:00,40.6,38.4,30.02,ESE,117,2.0,4.0,92,0.06,,,0.06,0,HR-IXPWINDi_r2_v1.2.,2013-02-13 01:21:00,
2013-02-12 20:28:00,40.7,38.5,30.04,East,96,0.0,4.0,92,0.06,,,0.06,0,HR-IXPWINDi_r2_v1.2.,2013-02-13 01:28:00,
2013-02-12 20:34:00,40.5,38.3,30.03,East,96,2.0,4.0,92,0.19,,,0.08,0,HR-IXPWINDi_r2_v1.2.,2013-02-13 01:34:00,
2013-02-12 20:40:00,40.4,38.2,30.02,East,96,1.0,4.0,92,0.08,,,0.08,0,HR-IXPWINDi_r2_v1.2.,2013-02-13 01:40:00,
2013-02-12 20:46:00,40.1,37.9,30.03,ESE,119,0.0,4.0,92,0.07,,,0.09,0,HR-IXPWINDi_r2_v1.2.,2013-02-13 01:46:00,
2013-02-12 20:51:00,40.0,38.1,30.03,ESE,121,1.0,4.0,93,0.08,,,0.10,0,HR-IXPWINDi_r2_v1.2.,2013-02-13 01:51:00,
2013-02-12 20:56:00,39.8,37.9,30.03,ESE,121,2.0,5.0,93,0.07,,,0.10,0,HR-IXPWINDi_r2_v1.2.,2013-02-13 01:56:00,
2013-02-12 21:02:00,39.5,37.6,30.03,ESE,121,1.0,5.0,93,0.04,,,0.10,0,HR-IXPWINDi_r2_v1.2.,2013-02-13 02:02:00,
2013-02-12 21:07:00,39.5,37.6,30.01,ESE,115,1.0,4.0,93,0.04,,,0.11,0,HR-IXPWINDi_r2_v1.2.,2013-02-13 02:07:00,
2013-02-12 21:12:00,39.7,37.8,30.03,ESE,123,0.0,4.0,93,0.04,,,0.11,0,HR-IXPWINDi_r2_v1.2.,2013-02-13 02:12:00,
2013-02-12 21:17:00,39.6,37.7,30.01,ESE,123,1.0,4.0,93,0.04,,,0.11,0,HR-IXPWINDi_r2_v1.2.,2013-02-13 02:17:00,
2013-02-12 21:22:00,39.6,37.7,30.01,East,94,0.0,4.0,93,0.04,,,0.12,0,HR-IXPWINDi_r2_v1.2.,2013-02-13 02:22:00,
2013-02-12 21:28:00,39.6,37.7,30.00,East,94,0.0,4.0,93,0.04,,,0.12,0,HR-IXPWINDi_r2_v1.2.,2013-02-13 02:28:00,
2013-02-12 21:33:00,39.5,37.6,30.01,East,94,0.0,2.0,93,0.04,,,0.12,0,HR-IXPWINDi_r2_v1.2.,2013-02-13 02:33:00,
2013-02-12 21:38:00,39.6,37.7,30.01,East,94,0.0,1.0,93,0.00,,,0.12,0,HR-IXPWINDi_r2_v1.2.,2013-02-13 02:38:00,
2013-02-12 21:43:00,39.6,38.0,30.00,East,94,2.0,2.0,94,0.00,,,0.12,0,HR-IXPWINDi_r2_v1.2.,2013-02-13 02:43:00,
2013-02-12 21:48:00,39.5,37.9,30.00,East,94,2.0,2.0,94,0.00,,,0.12,0,HR-IXPWINDi_r2_v1.2.,2013-02-13 02:48:00,
2013-02-12 21:54:00,39.6,38.0,30.00,East,94,0.0,4.0,94,0.00,,,0.12,0,HR-IXPWINDi_r2_v1.2.,2013-02-13 02:54:00,
2013-02-12 21:59:00,39.5,37.9,30.01,East,94,0.0,4.0,94,0.00,,,0.12,0,HR-IXPWINDi_r2_v1.2.,2013-02-13 02:59:00,
2013-02-12 22:04:00,39.5,37.9,30.00,East,94,2.0,4.0,94,0.00,,,0.12,0,HR-IXPWINDi_r2_v1.2.,2013-02-13 03:04:00,
2013-02-12 22:09:00,39.4,37.8,30.00,East,94,0.0,4.0,94,0.00,,,0.12,0,HR-IXPWINDi_r2_v1.2.,2013-02-13 03:09:00,
2013-02-12 22:14:00,39.6,38.0,30.00,East,94,2.0,2.0,94,0.00,,,0.12,0,HR-IXPWINDi_r2_v1.2.,2013-02-13 03:14:00,
2013-02-12 22:20:00,39.5,37.9,29.99,North,9,0.0,4.0,94,0.00,,,0.12,0,HR-IXPWINDi_r2_v1.2.,2013-02-13 03:20:00,
2013-02-12 22:25:00,39.6,38.0,29.99,NNE,30,0.0,4.0,94,0.00,,,0.12,0,HR-IXPWINDi_r2_v1.2.,2013-02-13 03:25:00,
2013-02-12 22:30:00,39.6,38.0,29.99,NE,49,2.0,3.0,94,0.00,,,0.13,0,HR-IXPWINDi_r2_v1.2.,2013-02-13 03:30:00,
2013-02-12 22:35:00,39.7,38.1,29.98,ENE,65,0.0,3.0,94,0.00,,,0.13,0,HR-IXPWINDi_r2_v1.2.,2013-02-13 03:35:00,
2013-02-12 22:40:00,39.5,37.9,29.97,ENE,65,0.0,3.0,94,0.00,,,0.13,0,HR-IXPWINDi_r2_v1.2.,2013-02-13 03:40:00,
2013-02-12 22:45:00,39.4,37.5,29.97,ENE,65,0.0,2.0,93,0.00,,,0.13,0,HR-IXPWINDi_r2_v1.2.,2013-02-13 03:45:00,
2013-02-12 22:50:00,39.6,38.0,29.96,ENE,65,0.0,2.0,94,0.00,,,0.13,0,HR-IXPWINDi_r2_v1.2.,2013-02-13 03:50:00,
2013-02-12 22:56:00,39.4,37.5,29.96,ENE,66,0.0,2.0,93,0.00,,,0.13,0,HR-IXPWINDi_r2_v1.2.,2013-02-13 03:56:00,
2013-02-12 23:01:00,39.5,37.6,29.96,NE,55,0.0,3.0,93,0.00,,,0.13,0,HR-IXPWINDi_r2_v1.2.,2013-02-13 04:01:00,
2013-02-12 23:06:00,39.5,37.6,29.95,NNW,348,0.0,3.0,93,0.00,,,0.13,0,HR-IXPWINDi_r2_v1.2.,2013-02-13 04:06:00,
2013-02-12 23:11:00,39.4,37.8,29.95,East,89,0.0,3.0,94,0.00,,,0.13,0,HR-IXPWINDi_r2_v1.2.,2013-02-13 04:11:00,
2013-02-12 23:16:00,39.5,37.9,29.95,East,89,0.0,3.0,94,0.00,,,0.13,0,HR-IXPWINDi_r2_v1.2.,2013-02-13 04:16:00,
2013-02-12 23:22:00,39.5,37.9,29.94,East,81,0.0,2.0,94,0.00,,,0.13,0,HR-IXPWINDi_r2_v1.2.,2013-02-13 04:22:00,
2013-02-12 23:27:00,39.5,37.9,29.93,East,79,0.0,3.0,94,0.00,,,0.13,0,HR-IXPWINDi_r2_v1.2.,2013-02-13 04:27:00,
2013-02-12 23:32:00,39.4,37.8,29.93,ENE,77,0.0,3.0,94,0.00,,,0.13,0,HR-IXPWINDi_r2_v1.2.,2013-02-13 04:32:00,
2013-02-12 23:37:00,39.3,37.7,29.93,South,186,1.0,4.0,94,0.00,,,0.13,0,HR-IXPWINDi_r2_v1.2.,2013-02-13 04:37:00,
2013-02-12 23:42:00,39.2,37.6,29.94,South,191,2.0,4.0,94,0.00,,,0.13,0,HR-IXPWINDi_r2_v1.2.,2013-02-13 04:42:00,
2013-02-12 23:48:00,39.5,38.1,29.94,South,191,0.0,4.0,95,0.00,,,0.13,0,HR-IXPWINDi_r2_v1.2.,2013-02-13 04:48:00,
2013-02-12 23:53:00,39.5,38.1,29.95,SSW,193,2.0,4.0,95,0.00,,,0.13,0,HR-IXPWINDi_r2_v1.2.,2013-02-13 04:53:00,
2013-02-12 23:58:00,39.4,38.0,29.94,SW,222,1.0,4.0,95,0.00,,,0.14,0,HR-IXPWINDi_r2_v1.2.,2013-02-13 04:58:00,